{"data":{"norad_id":68045,"intl_designator":"2026-041F","name":"STARLINK-36864","alt_names":[],"object_type":"PAYLOAD","status":"ACTIVE","operator":null,"country":"US","launch_date":"2026-03-02","launch_site_code":"AFETR","launch_vehicle":null,"mission":null,"orbit_class":"UNKNOWN","rcs_meters":null,"size_class":null,"mass_kg":null,"dimensions":null,"purposes":["comms"],"wikipedia_slug":null,"has_3d_model":false,"image_url":null,"decayed_at":null,"tle_current":{"epoch":"2026-05-25T02:54:09.725760Z","epoch_age_seconds":74767,"freshness":"FRESH","line1":"1 68045U 26041F   26145.12094590  .00027604  00000+0  82510-3 0  9991","line2":"2 68045  53.1593  53.2101 0001186  86.2825 273.8313 15.34400398 13110","mean_motion":15.34400398,"eccentricity":0.0001186,"inclination_deg":53.1593,"raan_deg":53.2101,"arg_perigee_deg":86.2825,"mean_anomaly_deg":273.8313,"bstar":0.0008251,"rev_number":1311,"period_min":93.847733738661,"perigee_km":461.89073375529,"apogee_km":463.51338077968,"semimajor_km":6840.8390572675,"source":"CELESTRAK","updated_at":"2026-05-25T13:38:21.811048Z"}}}